Location: Les Moreaux
(47.2278°N, 1.4966°E)
Time: 16:42:35
(UTC+00:00)

Cosmos 158 Rocket - Pass Details

Date: 12 August 2025
Orbit: 694 x 786 km, 74.0° (Epoch: 13 April)

Event Time Altitude Azimuth Distance (km) Brightness Sun altitude
Rises 02:25:57 0° 95° (E) 3,088 7.6 -19.7°
Enters shadow 03:28:50 -66° 203° (SSW) 12,505 10.1 -12.2°
Maximum altitude 04:07:16 32° 102° (ESE) 1,205 5.6 -6.8°
